College Park, MD

4:11 AM EST on December 11, 2019 (GMT -0500)
College Park

Weather History for KCGS - November, 2019

Change the Weather History Date:

Friday, November 22, 2019

  Actual Average Record
Temperature  
Mean Temperature 44 °F -  
Max Temperature 53 °F 53 °F 75 °F (1991)
Min Temperature 33 °F 34 °F 17 °F (1951)
Degree Days  
Heating Degree Days 22    
Moisture  
Dew Point 34 °F    
Average Humidity 59    
Maximum Humidity 82    
Minimum Humidity 42    
Precipitation  
Precipitation 0.00 in - - ()
Sea Level Pressure  
Sea Level Pressure 29.93 in    
Wind  
Wind Speed 3 mph (West)    
Max Wind Speed 12 mph    
Max Gust Speed 18 mph    
Visibility 10 miles    
Events      
Averages and records for this station are not official NWS values.
T = Trace of Precipitation, MM = Missing Value Source: NWS Daily Summary

Daily Weather History Graph

Daily Weather History Graph

Search for Another Location

Airport or City:

Astronomy

Nov. 22, 2019 Rise Set
Actual Time 6:57 AM EST 4:49 PM EST
Civil Twilight 6:28 AM EST 5:18 PM EST
Nautical Twilight 5:56 AM EST 5:50 PM EST
Astronomical Twilight 5:24 AM EST 6:22 PM EST
Moon 2:04 AM EST (11/22) 2:46 PM EST (11/22)
Length of Visible Light 10h 49m
Length of Day
9h 51m
Waning Crescent, 20% of the Moon is Illuminated
Nov 22
Waning Crescent
Nov 26
New
Dec 4
First Quarter
Dec 12
Full
Dec 18
Last Quarter

Hourly Weather History & Observations

Time (EST) Temp. Windchill Dew Point Humidity Pressure Visibility Wind Dir Wind Speed Gust Speed Precip Events Conditions
12:15 AM 50.2 °F - 32.5 °F 51% 29.98 in 10.0 mi South 4.6 mph - N/A   Overcast
12:35 AM 50.4 °F - 32.5 °F 50% 29.98 in 10.0 mi SSW 3.5 mph - N/A   Overcast
12:55 AM 50.4 °F - 32.9 °F 51% 29.96 in 10.0 mi SSW 4.6 mph - N/A   Overcast
1:15 AM 49.8 °F - 32.9 °F 52% 29.96 in 10.0 mi SSW 3.5 mph - N/A   Scattered Clouds
1:35 AM 49.6 °F - 32.9 °F 53% 29.96 in 10.0 mi SSW 3.5 mph - N/A   Scattered Clouds
2:15 AM 48.7 °F - 33.3 °F 55% 29.95 in 10.0 mi Calm Calm - N/A   Clear
2:35 AM 48.7 °F - 33.4 °F 56% 29.94 in 10.0 mi Calm Calm - N/A   Mostly Cloudy
2:55 AM 48.7 °F - 33.8 °F 56% 29.93 in 10.0 mi Calm Calm - N/A   Overcast
3:15 AM 48.6 °F - 33.8 °F 57% 29.93 in 10.0 mi Calm Calm - N/A   Overcast
3:35 AM 48.6 °F - 34.0 °F 57% 29.92 in 10.0 mi South 4.6 mph - N/A   Scattered Clouds
3:55 AM 48.6 °F - 34.2 °F 58% 29.91 in 10.0 mi Calm Calm - N/A   Scattered Clouds
4:15 AM 48.0 °F - 34.2 °F 59% 29.90 in 10.0 mi Calm Calm - N/A   Scattered Clouds
4:35 AM 48.2 °F - 34.5 °F 59% 29.89 in 10.0 mi Calm Calm - N/A   Clear
4:55 AM 48.4 °F - 34.7 °F 59% 29.89 in 10.0 mi Calm Calm - N/A   Clear
5:15 AM 48.2 °F - 34.9 °F 60% 29.89 in 10.0 mi Calm Calm - N/A   Clear
5:35 AM 48.2 °F - 35.1 °F 60% 29.88 in 10.0 mi Calm Calm - N/A   Clear
5:55 AM 47.5 °F - 35.1 °F 62% 29.89 in 10.0 mi Calm Calm - N/A   Scattered Clouds
6:15 AM 48.2 °F - 35.6 °F 62% 29.88 in 10.0 mi Calm Calm - N/A   Mostly Cloudy
6:35 AM 48.7 °F - 35.8 °F 61% 29.89 in 10.0 mi Calm Calm - N/A   Mostly Cloudy
6:55 AM 49.3 °F - 35.8 °F 60% 29.86 in 10.0 mi South 3.5 mph - N/A   Mostly Cloudy
7:15 AM 49.1 °F - 36.0 °F 61% 29.86 in 10.0 mi Calm Calm - N/A   Scattered Clouds
7:35 AM 49.6 °F - 36.0 °F 59% 29.85 in 10.0 mi SSW 3.5 mph - N/A   Clear
7:55 AM 50.2 °F - 36.1 °F 59% 29.86 in 10.0 mi SW 3.5 mph - N/A   Clear
8:15 AM 50.9 °F - 36.5 °F 58% 29.85 in 10.0 mi SSW 4.6 mph - N/A   Scattered Clouds
8:35 AM 51.1 °F - 36.5 °F 57% 29.85 in 10.0 mi Calm Calm - N/A   Scattered Clouds
8:55 AM 51.4 °F - 36.7 °F 57% 29.84 in 10.0 mi South 3.5 mph - N/A   Mostly Cloudy
9:15 AM 52.2 °F - 37.0 °F 56% 29.84 in 10.0 mi South 4.6 mph - N/A   Mostly Cloudy
9:55 AM 53.2 °F - 37.9 °F 56% 29.86 in 10.0 mi Calm Calm - N/A   Overcast
10:15 AM 52.9 °F - 38.5 °F 58% 29.86 in 10.0 mi Calm Calm - N/A   Overcast
10:35 AM 51.1 °F - 41.7 °F 70% 29.87 in 10.0 mi Calm Calm - N/A   Overcast
10:55 AM 50.5 °F - 42.8 °F 75% 29.86 in 10.0 mi SSW 4.6 mph - N/A   Overcast
11:15 AM 50.2 °F - 43.5 °F 78% 29.85 in 7.0 mi SW 3.5 mph - N/A   Overcast
11:35 AM 50.2 °F - 44.6 °F 81% 29.84 in 7.0 mi SSW 3.5 mph - N/A   Overcast
11:55 AM 50.2 °F - 44.8 °F 82% 29.83 in 7.0 mi SSW 3.5 mph - N/A   Overcast
12:15 PM 50.5 °F - 45.3 °F 82% 29.82 in 10.0 mi SSW 4.6 mph - N/A   Overcast
12:35 PM 50.7 °F - 45.5 °F 82% 29.81 in 10.0 mi WSW 4.6 mph - N/A   Overcast
12:55 PM 50.9 °F - 45.7 °F 82% 29.81 in 10.0 mi WSW 3.5 mph - N/A   Overcast
1:35 PM 52.0 °F - 46.4 °F 81% 29.84 in 10.0 mi WNW 5.8 mph - N/A   Overcast
1:55 PM 52.3 °F - 44.8 °F 75% 29.85 in 10.0 mi West 4.6 mph - N/A   Overcast
2:15 PM 53.1 °F - 41.7 °F 65% 29.83 in 10.0 mi West 4.6 mph - N/A   Overcast
2:35 PM 53.1 °F - 39.6 °F 60% 29.84 in 10.0 mi West 4.6 mph - N/A   Scattered Clouds
2:55 PM 53.1 °F - 37.4 °F 55% 29.85 in 10.0 mi WNW 5.8 mph - N/A   Clear
3:15 PM 52.7 °F - 34.9 °F 51% 29.85 in 10.0 mi NW 11.5 mph 17.3 mph N/A   Scattered Clouds
3:35 PM 52.7 °F - 34.0 °F 49% 29.86 in 10.0 mi NW 11.5 mph 18.4 mph N/A   Clear
3:55 PM 51.8 °F - 35.2 °F 53% 29.88 in 10.0 mi NNW 4.6 mph - N/A   Clear
4:15 PM 52.0 °F - 32.5 °F 48% 29.89 in 10.0 mi NW 8.1 mph 17.3 mph N/A   Clear
4:35 PM 50.9 °F - 31.1 °F 47% 29.91 in 10.0 mi NW 8.1 mph - N/A   Clear
4:55 PM 50.4 °F - 30.7 °F 47% 29.92 in 10.0 mi NNW 6.9 mph - N/A   Clear
5:15 PM 50.0 °F - 30.9 °F 48% 29.92 in 10.0 mi NW 9.2 mph - N/A   Clear
5:55 PM 48.2 °F - 30.2 °F 50% 29.96 in 10.0 mi NNW 3.5 mph - N/A   Clear
6:15 PM 47.3 °F - 30.0 °F 51% 29.97 in 10.0 mi NNW 3.5 mph - N/A   Clear
6:35 PM 45.5 °F 42.5 °F 29.7 °F 54% 29.99 in 10.0 mi NNW 5.8 mph - N/A   Clear
6:55 PM 47.7 °F - 26.4 °F 44% 30.00 in 10.0 mi NW 6.9 mph - N/A   Clear
7:15 PM 47.3 °F - 25.0 °F 42% 30.02 in 10.0 mi NW 8.1 mph 16.1 mph N/A   Clear
7:35 PM 46.9 °F - 25.2 °F 43% 30.03 in 10.0 mi NW 6.9 mph - N/A   Clear
7:55 PM 45.9 °F 41.7 °F 25.3 °F 45% 30.03 in 10.0 mi NW 8.1 mph - N/A   Clear
8:15 PM 45.5 °F 42.5 °F 25.3 °F 45% 30.04 in 10.0 mi NW 5.8 mph - N/A   Clear
8:55 PM 43.3 °F 41.7 °F 25.3 °F 49% 30.06 in 10.0 mi NNW 3.5 mph - N/A   Clear
9:15 PM 39.6 °F 36.3 °F 28.8 °F 65% 30.07 in 10.0 mi NNW 4.6 mph - N/A   Clear
9:35 PM 41.9 °F 38.2 °F 24.6 °F 50% 30.07 in 10.0 mi NNW 5.8 mph - N/A   Clear
9:55 PM 40.5 °F 37.3 °F 24.4 °F 53% 30.07 in 10.0 mi NNW 4.6 mph - N/A   Clear
10:15 PM 40.3 °F 37.1 °F 24.3 °F 53% 30.07 in 10.0 mi NNW 4.6 mph - N/A   Clear
10:35 PM 39.4 °F 36.1 °F 23.9 °F 54% 30.07 in 10.0 mi NNW 4.6 mph - N/A   Clear
10:55 PM 39.9 °F - 23.4 °F 52% 30.07 in 10.0 mi Calm Calm - N/A   Clear
11:15 PM 36.9 °F - 25.3 °F 63% 30.09 in 10.0 mi Calm Calm - N/A   Clear
11:35 PM 34.3 °F - 25.5 °F 70% 30.09 in 10.0 mi Calm Calm - N/A   Clear
11:55 PM 33.6 °F - 25.9 °F 73% 30.09 in 10.0 mi Calm Calm - N/A   Clear